Easton, MD

11:05 AM EST on November 18, 2019 (GMT -0500)
Easton / Newnam

Weather History for KESN - September, 2019

Change the Weather History Date:

Saturday, September 28, 2019

  Actual Average Record
Temperature  
Mean Temperature 74 °F -  
Max Temperature 84 °F 75 °F 89 °F (1954)
Min Temperature 64 °F 57 °F 38 °F (1957)
Cooling Degree Days 9    
Growing Degree Days 24 (Base 50)    
Moisture  
Dew Point 67 °F    
Average Humidity 84    
Maximum Humidity 94    
Minimum Humidity 66    
Precipitation  
Precipitation 0.00 in - - ()
Sea Level Pressure  
Sea Level Pressure 30.14 in    
Wind  
Wind Speed 4 mph (SSE)    
Max Wind Speed 10 mph    
Max Gust Speed -    
Visibility 10 miles    
Events      
Averages and records for this station are not official NWS values.
T = Trace of Precipitation, MM = Missing Value Source: NWS Daily Summary

Daily Weather History Graph

Daily Weather History Graph

Search for Another Location

Airport or City:

Astronomy

Sep. 28, 2019 Rise Set
Actual Time 6:57 AM EDT 6:52 PM EDT
Civil Twilight 6:30 AM EDT 7:18 PM EDT
Nautical Twilight 5:59 AM EDT 7:49 PM EDT
Astronomical Twilight 5:28 AM EDT 8:20 PM EDT
Moon 6:31 AM EDT (9/28) 7:16 PM EDT (9/28)
Length of Visible Light 12h 47m
Length of Day
11h 54m
Waning Crescent, 0% of the Moon is Illuminated
Sep 28
Waning Crescent
Sep 28
New
Oct 5
First Quarter
Oct 13
Full
Oct 21
Last Quarter

Hourly Weather History & Observations

Time (EDT) Temp. Heat Index Dew Point Humidity Pressure Visibility Wind Dir Wind Speed Gust Speed Precip Events Conditions
12:19 AM 68.0 °F - 61.9 °F 81% 30.16 in 10.0 mi SSE 4.6 mph - N/A   Clear
12:39 AM 68.5 °F - 62.6 °F 81% 30.15 in 10.0 mi SSE 5.8 mph - N/A   Clear
12:59 AM 68.4 °F - 62.6 °F 82% 30.14 in 10.0 mi SSE 5.8 mph - N/A   Clear
1:19 AM 68.0 °F - 62.6 °F 83% 30.14 in 10.0 mi SSE 5.8 mph - N/A   Clear
1:39 AM 66.6 °F - 62.2 °F 86% 30.14 in 10.0 mi SE 3.5 mph - N/A   Clear
1:59 AM 66.2 °F - 62.2 °F 87% 30.15 in 10.0 mi SE 3.5 mph - N/A   Clear
2:19 AM 65.8 °F - 62.1 °F 88% 30.16 in 10.0 mi SSE 3.5 mph - N/A   Scattered Clouds
2:39 AM 66.0 °F - 62.6 °F 89% 30.15 in 10.0 mi Calm Calm - N/A   Scattered Clouds
2:59 AM 65.5 °F - 62.4 °F 90% 30.15 in 10.0 mi ESE 3.5 mph - N/A   Scattered Clouds
3:19 AM 65.5 °F - 62.8 °F 91% 30.15 in 10.0 mi ESE 5.8 mph - N/A   Scattered Clouds
3:39 AM 65.3 °F - 62.6 °F 91% 30.14 in 10.0 mi SSE 3.5 mph - N/A   Clear
3:59 AM 65.3 °F - 62.8 °F 92% 30.14 in 10.0 mi Calm Calm - N/A   Clear
4:19 AM 65.3 °F - 63.0 °F 92% 30.14 in 10.0 mi Calm Calm - N/A   Scattered Clouds
4:39 AM 64.6 °F - 62.6 °F 93% 30.13 in 10.0 mi ESE 4.6 mph - N/A   Scattered Clouds
4:59 AM 65.5 °F - 63.5 °F 93% 30.13 in 10.0 mi SE 5.8 mph - N/A   Scattered Clouds
5:19 AM 65.8 °F - 63.7 °F 93% 30.15 in 10.0 mi Calm Calm - N/A   Scattered Clouds
5:39 AM 65.8 °F - 63.9 °F 93% 30.15 in 10.0 mi Calm Calm - N/A   Mostly Cloudy
5:58 AM 66.2 °F - 64.4 °F 94% 30.15 in 10.0 mi SE 5.8 mph - N/A   Scattered Clouds
6:50 AM 64.4 °F - 62.6 °F 94% 30.16 in 10.0 mi ESE 4.6 mph - N/A   Scattered Clouds
7:50 AM 66.2 °F - 64.4 °F 94% 30.16 in 10.0 mi Calm Calm - N/A   Clear
8:50 AM 73.4 °F - 68.0 °F 83% 30.16 in 10.0 mi SSE 6.9 mph - N/A   Clear
9:50 AM 78.8 °F - 69.8 °F 74% 30.16 in 10.0 mi South 8.1 mph - N/A   Mostly Cloudy
10:50 AM 80.6 °F 84.6 °F 71.6 °F 74% 30.16 in 10.0 mi South 8.1 mph - N/A   Overcast
11:50 AM 82.4 °F 87.2 °F 71.6 °F 70% 30.15 in 10.0 mi South 8.1 mph - N/A   Scattered Clouds
12:50 PM 82.4 °F 87.2 °F 71.6 °F 70% 30.15 in 10.0 mi SSE 9.2 mph - N/A   Mostly Cloudy
1:50 PM 82.4 °F 88.2 °F 73.4 °F 74% 30.13 in 10.0 mi SSW 10.4 mph - N/A   Mostly Cloudy
2:45 PM 84.2 °F 89.6 °F 71.6 °F 66% 30.11 in 10.0 mi SSW 4.6 mph - N/A   Scattered Clouds
3:53 PM 82.4 °F 87.2 °F 71.6 °F 70% 30.10 in 10.0 mi SSW 8.1 mph - N/A   Scattered Clouds
4:50 PM 84.2 °F 90.9 °F 73.4 °F 70% 30.10 in 10.0 mi SSW 6.9 mph - N/A   Scattered Clouds
5:50 PM 84.2 °F 89.6 °F 71.6 °F 66% 30.11 in 10.0 mi SSW 5.8 mph - N/A   Scattered Clouds
6:50 PM 80.6 °F 85.4 °F 73.4 °F 79% 30.10 in 10.0 mi South 5.8 mph - N/A   Scattered Clouds
7:50 PM 78.8 °F - 71.6 °F 78% 30.09 in 10.0 mi South 5.8 mph - N/A   Scattered Clouds
8:50 PM 77.0 °F - 73.4 °F 89% 30.11 in 10.0 mi Calm Calm - N/A   Clear
9:45 PM 77.0 °F - 73.4 °F 89% 30.13 in 10.0 mi SSE 3.5 mph - N/A   Clear
10:19 PM 76.6 °F - 73.0 °F 89% 30.13 in 10.0 mi South 4.6 mph - N/A   Clear
10:39 PM 76.3 °F - 73.0 °F 90% 30.13 in 10.0 mi South 3.5 mph - N/A   Clear
11:19 PM 76.3 °F - 73.2 °F 90% 30.13 in 10.0 mi Calm Calm - N/A   Clear
11:39 PM 76.1 °F - 73.4 °F 91% 30.12 in 10.0 mi Calm Calm - N/A   Clear
11:59 PM 75.4 °F - 73.0 °F 92% 30.13 in 10.0 mi South 3.5 mph - N/A   Clear